When you browse on this site, cookies collect data to enhance your experience and personalize the content and advertising you see.
Visit our Privacy Policy to learn more. By continuing to use the site, you agree to this use of cookies and data.
  • In Hungary
  • List of Countries
  • For 7 days
  • Water Temperature
  • Weather Map
  • News
  • Weather Widgets
  • user-avatar
    Login

    Hourly Weather Riga

    Today, 21 October, Monday

    Time Temperature Precipitation Wind Pressure Humidity
    00:00 +5°C° 0 mm 4 mps 768 mmHg 83%
    01:00 +5°C° 0 mm 4 mps 768 mmHg 84%
    02:00 +5°C° 0 mm 4 mps 767 mmHg 86%
    03:00 +5°C° 0 mm 4 mps 767 mmHg 88%
    04:00 +5°C° 0 mm 4 mps 767 mmHg 88%
    05:00 +5°C° 0 mm 4 mps 767 mmHg 89%
    06:00 +5°C° 0 mm 4 mps 767 mmHg 89%
    07:00 +6°C° 0 mm 4 mps 767 mmHg 87%
    08:00 +7°C° 0 mm 5 mps 767 mmHg 85%
    09:00 +7°C° 0 mm 5 mps 767 mmHg 83%
    10:00 +8°C° 0 mm 5 mps 766 mmHg 80%
    11:00 +10°C° 0 mm 5 mps 766 mmHg 76%
    12:00 +11°C° 0 mm 6 mps 766 mmHg 73%
    13:00 +11°C° 0 mm 6 mps 765 mmHg 73%
    14:00 +11°C° 0 mm 6 mps 765 mmHg 73%
    15:00 +11°C° 0 mm 6 mps 765 mmHg 73%
    16:00 +11°C° 0 mm 6 mps 764 mmHg 75%
    17:00 +10°C° 0 mm 6 mps 764 mmHg 77%
    18:00 +9°C° 0 mm 6 mps 764 mmHg 79%
    19:00 +10°C° 0 mm 6 mps 763 mmHg 79%
    20:00 +10°C° 0 mm 7 mps 763 mmHg 78%
    21:00 +10°C° 0 mm 7 mps 762 mmHg 77%
    22:00 +10°C° 0 mm 7 mps 762 mmHg 77%
    23:00 +9°C° 0 mm 7 mps 761 mmHg 77%

    Tomorrow, 22 October, Tuesday

    Time Temperature Precipitation Wind Pressure Humidity
    00:00 +9°C° 0 mm 7 mps 761 mmHg 77%
    01:00 +9°C° 0 mm 7 mps 761 mmHg 78%
    02:00 +9°C° 0 mm 6 mps 760 mmHg 78%
    03:00 +9°C° 0 mm 6 mps 760 mmHg 79%
    04:00 +9°C° 0.5 mm 5 mps 760 mmHg 82%
    05:00 +9°C° 0.5 mm 5 mps 760 mmHg 86%
    06:00 +9°C° 0.5 mm 5 mps 759 mmHg 89%
    07:00 +10°C° 1.1 mm 4 mps 760 mmHg 91%
    08:00 +10°C° 1.1 mm 4 mps 760 mmHg 93%
    09:00 +10°C° 1.1 mm 3 mps 760 mmHg 95%
    10:00 +10°C° 0.1 mm 3 mps 760 mmHg 94%
    11:00 +12°C° 0.1 mm 2 mps 760 mmHg 92%
    12:00 +12°C° 0.1 mm 1 mps 760 mmHg 91%
    13:00 +13°C° 0 mm 2 mps 760 mmHg 88%
    14:00 +13°C° 0 mm 2 mps 760 mmHg 85%
    15:00 +13°C° 0 mm 2 mps 761 mmHg 82%
    16:00 +12°C° 0 mm 2 mps 761 mmHg 83%
    17:00 +12°C° 0 mm 2 mps 761 mmHg 85%
    18:00 +10°C° 0 mm 3 mps 762 mmHg 87%
    19:00 +9°C° 0 mm 3 mps 762 mmHg 87%
    20:00 +9°C° 0 mm 3 mps 762 mmHg 87%
    21:00 +8°C° 0 mm 3 mps 762 mmHg 87%
    22:00 +7°C° 0 mm 2 mps 762 mmHg 87%
    23:00 +7°C° 0 mm 2 mps 762 mmHg 87%

    Day after tomorrow, 23 October, Wednesday

    Time Temperature Precipitation Wind Pressure Humidity
    00:00 +6°C° 0 mm 2 mps 762 mmHg 87%
    01:00 +6°C° 0 mm 2 mps 763 mmHg 87%
    02:00 +5°C° 0 mm 2 mps 763 mmHg 87%
    03:00 +6°C° 0 mm 1 mps 763 mmHg 87%
    04:00 +6°C° 0 mm 1 mps 763 mmHg 88%
    05:00 +5°C° 0 mm 1 mps 763 mmHg 89%
    06:00 +5°C° 0 mm 1 mps 763 mmHg 90%
    07:00 +6°C° 0 mm 1 mps 763 mmHg 86%
    08:00 +6°C° 0 mm 2 mps 763 mmHg 83%
    09:00 +6°C° 0 mm 2 mps 763 mmHg 80%
    10:00 +7°C° 0 mm 3 mps 763 mmHg 77%
    11:00 +8°C° 0 mm 3 mps 763 mmHg 73%
    12:00 +7°C° 0 mm 4 mps 762 mmHg 70%
    13:00 +7°C° 0 mm 4 mps 762 mmHg 70%
    14:00 +8°C° 0 mm 4 mps 762 mmHg 70%
    15:00 +8°C° 0 mm 4 mps 761 mmHg 71%
    16:00 +8°C° 0 mm 5 mps 761 mmHg 72%
    17:00 +8°C° 0 mm 5 mps 761 mmHg 74%
    18:00 +8°C° 0 mm 5 mps 760 mmHg 76%
    19:00 +8°C° 0.4 mm 5 mps 760 mmHg 79%
    20:00 +8°C° 0.4 mm 4 mps 760 mmHg 82%
    21:00 +8°C° 0.4 mm 4 mps 760 mmHg 85%
    22:00 +8°C° 0.1 mm 4 mps 760 mmHg 84%
    23:00 +8°C° 0.1 mm 4 mps 760 mmHg 84%

    24 October, Thursday

    Time Temperature Precipitation Wind Pressure Humidity
    00:00 +10°C° 0.1 mm 4 mps 759 mmHg 83%
    01:00 +10°C° 0 mm 4 mps 759 mmHg 85%
    02:00 +10°C° 0 mm 4 mps 759 mmHg 87%
    03:00 +10°C° 0 mm 3 mps 759 mmHg 88%
    04:00 +10°C° 0 mm 3 mps 760 mmHg 90%
    05:00 +10°C° 0 mm 3 mps 760 mmHg 91%
    06:00 +10°C° 0 mm 2 mps 760 mmHg 93%
    07:00 +10°C° 0 mm 2 mps 760 mmHg 92%
    08:00 +12°C° 0 mm 2 mps 760 mmHg 91%
    09:00 +12°C° 0 mm 2 mps 760 mmHg 90%
    10:00 +12°C° 0 mm 2 mps 760 mmHg 87%
    11:00 +13°C° 0 mm 1 mps 761 mmHg 84%
    12:00 +13°C° 0 mm 1 mps 761 mmHg 81%
    13:00 +13°C° 0 mm 1 mps 761 mmHg 82%
    14:00 +13°C° 0 mm 1 mps 761 mmHg 83%
    15:00 +13°C° 0 mm 1 mps 761 mmHg 84%
    16:00 +12°C° 0 mm 1 mps 761 mmHg 86%
    17:00 +12°C° 0 mm 1 mps 761 mmHg 87%
    18:00 +12°C° 0 mm 1 mps 761 mmHg 88%
    19:00 +12°C° 0 mm 1 mps 762 mmHg 88%
    20:00 +11°C° 0 mm 0 mps 762 mmHg 88%
    21:00 +10°C° 0 mm 0 mps 762 mmHg 88%
    22:00 +10°C° 0 mm 0 mps 762 mmHg 88%
    23:00 +10°C° 0 mm 0 mps 762 mmHg 88%

    25 October, Friday

    Time Temperature Precipitation Wind Pressure Humidity
    00:00 +10°C° 0 mm 0 mps 762 mmHg 88%
    01:00 +10°C° 0 mm 0 mps 762 mmHg 89%
    02:00 +10°C° 0 mm 0 mps 762 mmHg 89%
    03:00 +10°C° 0 mm 0 mps 762 mmHg 90%
    04:00 +9°C° 0 mm 0 mps 762 mmHg 90%
    05:00 +9°C° 0 mm 0 mps 762 mmHg 91%
    06:00 +9°C° 0 mm 0 mps 762 mmHg 91%
    07:00 +11°C° 0 mm 1 mps 762 mmHg 88%
    08:00 +11°C° 0 mm 1 mps 762 mmHg 85%
    09:00 +12°C° 0 mm 1 mps 762 mmHg 81%
    10:00 +12°C° 0 mm 1 mps 763 mmHg 78%
    11:00 +13°C° 0 mm 1 mps 763 mmHg 75%
    12:00 +13°C° 0 mm 1 mps 763 mmHg 71%
    13:00 +13°C° 0 mm 1 mps 763 mmHg 71%
    14:00 +13°C° 0 mm 1 mps 763 mmHg 71%
    15:00 +13°C° 0 mm 1 mps 763 mmHg 71%
    16:00 +12°C° 0 mm 1 mps 763 mmHg 75%
    17:00 +11°C° 0 mm 1 mps 763 mmHg 78%
    18:00 +11°C° 0 mm 1 mps 763 mmHg 82%
    19:00 +10°C° 0 mm 1 mps 763 mmHg 83%
    20:00 +10°C° 0 mm 1 mps 763 mmHg 84%
    21:00 +10°C° 0 mm 1 mps 764 mmHg 85%
    22:00 +9°C° 0 mm 1 mps 764 mmHg 86%
    23:00 +9°C° 0 mm 1 mps 764 mmHg 87%

    26 October, Saturday

    Time Temperature Precipitation Wind Pressure Humidity
    00:00 +9°C° 0 mm 1 mps 764 mmHg 88%
    01:00 +8°C° 0 mm 1 mps 764 mmHg 88%
    02:00 +8°C° 0 mm 1 mps 764 mmHg 88%
    03:00 +8°C° 0 mm 1 mps 764 mmHg 89%
    04:00 +8°C° 0 mm 1 mps 764 mmHg 88%
    05:00 +8°C° 0 mm 1 mps 764 mmHg 88%
    06:00 +8°C° 0 mm 1 mps 764 mmHg 88%
    07:00 +9°C° 0 mm 1 mps 764 mmHg 85%
    08:00 +9°C° 0 mm 2 mps 763 mmHg 83%
    09:00 +10°C° 0 mm 2 mps 763 mmHg 80%
    10:00 +11°C° 0 mm 3 mps 763 mmHg 79%
    11:00 +12°C° 0 mm 4 mps 763 mmHg 78%
    12:00 +13°C° 0 mm 5 mps 763 mmHg 77%
    13:00 +14°C° 0 mm 5 mps 762 mmHg 74%
    14:00 +14°C° 0 mm 5 mps 761 mmHg 72%
    15:00 +15°C° 0 mm 5 mps 761 mmHg 69%
    16:00 +14°C° 0 mm 5 mps 761 mmHg 71%
    17:00 +13°C° 0 mm 5 mps 761 mmHg 73%
    18:00 +12°C° 0 mm 5 mps 760 mmHg 75%
    19:00 +12°C° 0 mm 5 mps 760 mmHg 75%
    20:00 +12°C° 0 mm 5 mps 760 mmHg 76%
    21:00 +12°C° 0 mm 5 mps 760 mmHg 76%
    22:00 +10°C° 0 mm 5 mps 760 mmHg 78%
    23:00 +10°C° 0 mm 5 mps 760 mmHg 80%

    27 October, Sunday

    Time Temperature Precipitation Wind Pressure Humidity
    00:00 +10°C° 0 mm 5 mps 760 mmHg 82%
    01:00 +10°C° 0 mm 4 mps 760 mmHg 83%
    02:00 +10°C° 0 mm 4 mps 760 mmHg 85%
    03:00 +10°C° 0 mm 4 mps 760 mmHg 86%
    04:00 +10°C° 0 mm 4 mps 760 mmHg 87%
    05:00 +8°C° 0 mm 4 mps 760 mmHg 88%
    06:00 +8°C° 0 mm 4 mps 759 mmHg 89%
    07:00 +9°C° 0 mm 5 mps 759 mmHg 86%
    08:00 +10°C° 0 mm 5 mps 759 mmHg 83%
    09:00 +10°C° 0 mm 6 mps 759 mmHg 80%
    10:00 +11°C° 0 mm 6 mps 759 mmHg 74%
    11:00 +13°C° 0 mm 6 mps 758 mmHg 68%
    12:00 +15°C° 0 mm 7 mps 758 mmHg 63%
    13:00 +15°C° 0 mm 7 mps 758 mmHg 61%
    14:00 +15°C° 0 mm 7 mps 757 mmHg 60%
    15:00 +15°C° 0 mm 6 mps 757 mmHg 58%
    16:00 +14°C° 0 mm 6 mps 757 mmHg 60%
    17:00 +14°C° 0 mm 6 mps 756 mmHg 62%
    18:00 +13°C° 0 mm 6 mps 756 mmHg 63%
    19:00 +13°C° 0 mm 6 mps 756 mmHg 66%
    20:00 +11°C° 0 mm 6 mps 756 mmHg 69%
    21:00 +11°C° 0 mm 6 mps 756 mmHg 71%
    22:00 +10°C° 0 mm 6 mps 756 mmHg 73%
    23:00 +10°C° 0 mm 5 mps 755 mmHg 74%
    Show more